[Date Prev][Date Next][Thread Prev][Thread Next][Date Index][Thread Index]

[jamsat-news:1752] jas2info #294



========================   ºÇ¿·¾ðÊó   ==============================

        Last updated ¡¡19Oct2002 ¡¡18:00(JST)   #294

====================================================================
   
£±¡Ë¥¢¥Þ¥Á¥å¥¢ÄÌ¿®±ÒÀ±¾ðÊ󡢣ƣϥ·¥ê¡¼¥º¤Îµ°Æ»Í×ÁÇ¡¢¥Æ¥ì¥á¥È¥ê¡¢£Ñ£Ó£Ï¤Î
¡¡¡¡¡¡¾õ¶·Åù¤ò¤Þ¤È¤á¤Æ¤ß¤Þ¤·¤¿¡¥
¡¡¡¡¡¡
¡¡£Æ£Ï¡Ý£²£¹¤Î£²£°£°£²Ç¯£±£°·î£±£¹Æü¡ÊÅڡˤΣ±£¶¡§£³£¸¡Ê£Ê£Ó£Ô¡Ë¤Î¥Ñ¥¹¤Ç¤Ï
£Ê£Á£Ò£Ì¤Î¥Û¡¼¥à¥Ú¡¼¥¸¤Î¤È¤¦¤ê¥¢¥Ê¥í¥°±¿ÍѤǤ·¤¿¡£¡¡º£Æü¤Þ¤Ç¤Î´Ñ¬¤·¤¿
¥Æ¥ì¥á¥È¥ê¡¼¤ÈºÇ½ª¹Ô¤ÎʬÀÏ·ë²Ì¤òÊó¹ð¤·¤Æ¤ª¤­¤Þ¤¹¡£

AS30478C  19Oct2002
16:38-16:53(JST)
AOS   MEL  LOS  Elev
 19   100  180  48.5
Freq. 435.805-.785Hz
(JAS-2 No.109 B 3610-3880END No.110 A 0-520 )

HI HI AE 07 88 55 00 D4 7A 71 09 41 54 7F 50 5F 86 83 8F 6F 88 86 84 85 7D 
HI HI AE 07 88 55 00 D4 7A 71 09 41 4F 7C 53 5E 86 83 90 8A 88 86 84 85 7D 
HI HI AE 07 88 55 00 D4 7A 71 09 41 4B 78 56 5D 86 84 90 66 88 86 84 85 7D 
HI HI AE 07 88 55 00 D4 7A 71 09 41 48 73 58 5A 86 84 90 6D 88 86 84 85 7D 
HI HI AE 07 88 55 00 D4 7A 71 09 41 46 6D 5E 58 87 84 90 6B 88 86 84 85 7D 
HI HI AE 07 88 55 00 D4 7A 71 09 41 44 66 62 56 87 84 91 72 88 86 84 85 7D 
HI HI AE 07 88 55 00 D4 7A 71 09 41 44 5F 67 54 88 85 91 72 88 86 84 86 7D 
HI HI AE 07 88 55 00 D4 7A 71 09 41 45 58 6A 53 89 86 92 75 88 86 84 86 7D 
HI HI AE 07 88 55 00 D4 7A 71 09 41 47 50 6F 50 89 86 93 74 88 86 84 86 7D 
HI HI AE 07 88 55 00 D4 7A 71 09 41 4B 49 71 50 8B 87 94 78 88 86 84 86 7D 
HI HI AE 07 88 55 00 D4 7A 71 09 41 50 46 73 4D 8C 89 96 7E 88 85 84 86 7D 
HI HI AE 07 88 55 00 D4 7A 71 09 41 56 3D 75 4D 8E 8A 97 71 88 85 85 86 7D 
HI HI AE 07 88 55 00 D4 7A 71 09 41 5C 39 76 4C 90 8A 9I 5F 88 85 85 86 7D 
HI HI AE 07 88 55 00 D4 7A 71 09 41 63 36 78 4B 92 8E 9C 75 88 85 85 86 7D 
HI HI AE C7 88 55 00 D4 7A 71 09 41 6B 34 78 4B 92 8E 9C 73 88 85 85 86 7D 
HI HI AE C7 88 55 00 D4 7A 71 08 41 72 34 77 4C 93 8E 9B 71 87 85 85 86 7D
HI HI AE 07 88 55 00 D4 7A 71 09 41 7A 36 77 4B 93 8E 9B 62 87 85 85 86 7D 
HI HI AE 07 88 55 00 D4 7A 71 09 41 82 39 79 4C 92 7D B0 7A 87 85 85 86 7D 
HI HI AE 07 88 55 00 D4 7A 71 09 41 87 3B 79 5E 90 8C 9A 7D 87 85 85 87 7D  

AS30465C  18Oct2002
17:34-17:48(JST)
AOS   MEL  LOS  Elev
  6   287  209  49.0
Freq. 435.805-.785Hz
(JAS-2 No.109 B 3060-3610 )

HI HI AE 07 88 55 00 D4 94 7F 09 35 28 72 74 4C 91 8D 9A 7E 81 81 88 86 7C 
HI HI AE 07 88 55 00 D4 94 7F 09 35 24 63 74 4D 92 8E 9B 78 81 81 88 86 7C 
HI HI AE 07 88 55 00 D4 94 7F 09 35 24 52 73 5E 90 8C B0 6A 81 81 68 86 7C 
HI HI AE 07 88 55 00 D4 94 7F 09 35 2A 3F 71 4E 90 8C 9A 8D 81 81 88 86 7C 
HI HI AE 07 88 55 00 D4 94 7F 09 35 35 33 6F 50 90 8D 9A 7F 81 81 88 86 7C 
HI HI AE 07 88 55 00 D4 94 7F 09 35 44 27 6B 51 90 8E 9B 86 82 81 88 86 7C 
HI HI AE 07 88 55 00 D4 89 22 09 22 54 20 6A 53 93 8D 9B 7E 82 81 88 86 7C 
HI HI AE 07 88 55 00 D4 89 22 09 22 65 1F 6B 51 92 8E 9B 70 82 81 88 87 7C 
HI HI AE C7 88 55 00 D4 89 22 09 22 74 23 6F 4F 91 8D 9B 79 82 81 88 87 7C 
HI HI AE C7 88 55 00 D4 89 22 09 22 80 2D 72 4D 92 8E 9B 80 83 81 88 86 7C 
HI HI AE 07 88 55 00 D4 89 22 09 22 87 38 74 5E 90 8E 9B 5B 83 81 88 86 7C 
HI HI AE 07 88 55 00 D4 89 22 09 22 8A 55 75 5E 90 8E 9B 5B 83 81 88 86 7C 
HI HI AE 07 88 55 00 D4 89 22 09 22 87 5B 76 5E 90 8C 9B 61 83 81 88 87 7C 
HI HI AE C7 88 55 00 D4 89 22 09 22 80 6F 79 4B 92 8E B0 85 83 81 88 88 7C
HI HI AE 07 88 55 00 D4 89 22 09 22 66 89 79 5E 90 8C 89 7A 83 81 88 88 7C 
HI HI AE 07 88 55 00 D4 89 22 08 22 68 93 7A 60 96 8C B0 58 83 81 88 88 7C 
HI HI AE 07 88 55 00 D4 89 22 09 24 6A 96 7C 4A 93 8E B1 7E 83 81 88 88 7C 

AS30452C  17Oct2002
18:32-18:41(JST)
AOS   MEL  LOS  Elev
352   297  240  15.7
Freq. 435.800-.787Hz
(JAS-2 No.109¡¡ B 2680-3060 )

HI HI AE 07 88 55 00 D4 55 A5 09 1E 68 98 51 5E 87 84 91 50 8  E3 8A 88 7D 
HI HI AE 07 88 55 00 D4 55 A5 09 1E 69 95 58 5C 87 85 91 7E 83 83 8A 88 7D 
HI HI AE 07 88 55 00 D4 55 A5 09 1E 69 A5 5B 5A 87 85 91 67 83 83 8A 88 7D 
HI HI AE 07 88 55 00 D4 55 A5 09 1E 6A B1 60 56 88 85 90 63 83 83 8A 88 7D 
HI HI AE 07 88 55 00 D4 55 A5 09 1E 6A BA 63 55 88 85 92 63 83 83 8A 88 7D 
HI HI AE 07 88 55 00 D4 55 A5 09 1E 6C BB 70 50 89 86 93 5A 83 83 8A 88 7D 
HI HI AE 07 88 55 00 D4 55 A5 09 1E 6D BB 71 4F 8A 87 94 5D 84 83 8A 88 7D 
HI HI AE 07 88 55 00 D4 55 A5 09 1E 70 B5 77 4B 8C 89 96 61 84 83 8B 88 7D 
HI HI AE 07 88 55 00 D4 55 A5 09 1E 74 AB 7B 49 8F 8B 99 6E 84 83 8B 88 7D
HI HI AE 07 88 55 00 D4 55 A5 09 1E 78 9F 7D 48 90 8D AE 80 84 83 8B 88 7D 
HI HI AE C7 88 55 00 D4 55 A5 09 1E 7C 90 7D 5D 91 8D AB 7F 84 84 8B 88 7D 
HI HI AE C7 88 55 00 D4 55 A5 09 1E 83 85 80 4A 93 8D AC 67 84 84 8B 88 7D 
HI HI AE 07 88 55 00 D4 55 A5 09       
------------------------¡¡£Æ£Ï-£²£¹¤Îµ°Æ»Í×ÁÇ¡¡------------------------------        
 
¡¡¡¡¢£ µ°Æ»Í×ÁÇ£±¡§¡Öjamsat¡Ýkeps¡§£±£²£´£·¡×¤è¤ê         
¡¡¡¡¡¡¡¡¡¡¡¡¡¡¡¡¡¡¡¡SB KEPS @ AMSAT  $ORB02283.N
¡¡¡¡¡¡¡¡¡¡¡¡¡¡¡¡¡¡¡¡2Line Orbital Elements 02283.AMSAT

HR AMSAT ORBITAL ELEMENTS FOR AMATEUR SATELLITES IN NASA FORMAT
FROM WA5QGD FORT WORTH,TX October 10, 2002
SEND SUBSCRIBE/UNSUBSCRIBE TO majordomo@amsat.org ONLY
BID: ORB02283.N

¡¡DECODE 2-LINE ELSETS WITH THE FOLLOWING KEY:
¡¡1 AAAAAU 00  0  0 BBBBB.BBBBBBBB  .CCCCCCCC  00000-0  00000-0 0  DDDZ
¡¡2 AAAAA EEE.EEEE FFF.FFFF GGGGGGG HHH.HHHH III.IIII JJ.JJJJJJJJKKKKKZ
¡¡KEY: A-CATALOGNUM B-EPOCHTIME C-DECAY D-ELSETNUM E-INCLINATION F-RAAN
¡¡G-ECCENTRICITY H-ARGPERIGEE I-MNANOM J-MNMOTION K-ORBITNUM Z-CHECKSUM

FO-29
1 24278U 96046B   02282.89916523  .00000183  00000-0  22299-3 0 05440
2 24278 098.5237 087.0982 0350623 197.7440 161.1225 13.52855298303501

 ¢£ µ°Æ»Í×ÁÇ£²¡§¡Öjamsat¡Ýkeps¡§£±£²£´£¸¡×¤è¤ê¡¡
¡¡¡¡¡¡¡¡¡¡¡¡¡¡SB KEPS @ AMSAT  $ORB02283.O
¡¡¡¡¡¡¡¡¡¡¡¡¡¡Orbital Elements  02283.OSCAR

HR AMSAT ORBITAL ELEMENTS FOR OSCAR SATELLITES
FROM WA5QGD FORT WORTH,TX October 10, 2002
SEND SUBSCRIBE/UNSUBSCRIBE TO majordomo@amsat.org ONLY
BID: ORB02283.O
TO ALL RADIO AMATEURS BT

Satellite: FO-29
Catalog number: 24278
Epoch time:      02282.89916523
Element set:    0544
Inclination:      098.5237 deg
RA of node:       087.0982 deg
Eccentricity:    0.0350623
Arg of perigee:   197.7440 deg
Mean anomaly:     161.1225 deg
Mean motion:   13.52855298 rev/day
Decay rate:       1.83e-06 rev/day^2
Epoch rev:           30350
Checksum:              322

-------------------¡¡¡¡FO-29¡ÊJAS-2)¤Î¥Æ¥ì¥á¥È¥ê¤Ë´Ø¤¹¤ë¾ðÊó¡¡¡¡----------------------¡¡
¡¡
£²¡Ë¾åµ­£²£°£°£²Ç¯£±£°·î£±£¹Æü¡ÊÅڡˤΥƥì¥á¥È¥ê¤Î£±£¶:£³£¸¤Î¥Ñ¥¹¤ÎºÇ½ª¹Ô¤òʬÀϤ·¤Æ
¡¡¤ª¤­¤Þ¤¹¡£

AS30478C  19Oct2002
16:38-16:53(JST)
AOS   MEL  LOS  Elev
 19   100  180  48.5
Freq. 435.805-.785Hz
(JAS-2 No.109 B 3610-3880END No.110 A 0-520 )

HI HI AE 07 88 55 00 D4 7A 71 09 41 87 3B 79 5E 90 8C 9A 7D 87 85 85 87 7D  

¥Æ¥ì¥á¥È¥ê¡¡  Æâ¡¡ÍÆ¡¡ ¡¡     ´¹»»»»ÃÍ¡¡Ã± °Ì
£³£Ã	¼§µ¤¥»¥ó¥µ¡¼£Ú¼´=	66176.5	[nT]
£³£Ä	¼§µ¤¥»¥ó¥µ£Ø¼´	=	28921.6	[nT]
£´£Á	ÂÀÍÛÅÅÃÓȯÀ¸ÅÅή=	 1186.3	[mA]
£´£Â	£Â½¼ÊüÅÅÅÅή	=	 -157.6	[mA]
£´£Ã	£Âü»ÒÅÅ°µ	=	   15.5	[V]
£´£Ä	£ÂÃæ´Öü»ÒÅÅ°µ	=	    6.7	[V]
£µ£Á	¥Ð¥¹ÅÅ°µ	=	   15.1	[V]
£µ£Â	£Ê£Ô£ÁÁ÷¿®ÅÅÎÏ	=	  714.4	[mW]
£µ£Ã 	¹½Âβ¹ÅÙ£±	=	   29.5	[¡î]
£µ£Ä	¹½Âβ¹ÅÙ£²	=	   30.2	[¡î]
£¶£Á	¹½Âβ¹ÅÙ£³	=	   30.2	[¡î]
£¶£Â	¹½Âβ¹ÅÙ£´	=	   29.5	[¡î]
£¶£Ã	£Â¥»¥ë²¹ÅÙ	=	   33.3	[¡î]

 ==========================¡¡FO-29¡Ê¤Õ¤¸£³¹æ¡Ë¤Î¥Æ¥ì¥á¥È¥êʬÀÏ¡¢£Ñ£Ó£Ï¾ðÊóÅù¡¡=====================
   
¡¡£³)[jamsat-bb:

 =================================================================================================
¡¡
¡¡£´¡Ë£Ê£Á£Ò£Ì ¤Î¥Û¡¼¥à¥Ú¡¼¥¸¤Ë±¿ÍÑͽÄ꤬µ­ºÜ¤µ¤ì¤Æ¤¤¤Þ¤·¤¿¤Î¤Ç¤´¾Ò²ð¤·¤Þ¤¹¡¥
       ¡Ê http://www.jarl.or.jp/Japanese/3_Fuji/new/uy.htm ¡Ë
       
¡¡¡¡¡¡¡¡¡¡¡¡¡¡¡¡¡ö¡ö¡ö¡¡±¿ÍÑͽÄê¤Ë¤Ä¤¤¤Æ¡¡¡ö¡ö¡ö

¡¡¡¡¡¡£´·î£°£±Æü¡Ê·î¡Ë¡¡¡Á¡¡£¶·î£³£°Æü¡ÊÆü¡Ë¥¢¥Ê¥í¥°·Ï±¿ÍÑ 

¡¡¡¡¡ö¤Ê¤ª¡¤±¿ÍÑͽÄê¤ÏÅÔ¹ç¤Ë¤è¤ê¡¤Êѹ¹¤¹¤ë¤³¤È¤¬¤¢¤ê¤Þ¤¹¤Î¤Ç¡¤¤¢¤é¤«¤¸¤á¤´Î»¾µ´ê¤¤¤Þ¤¹¡£

¡¡¾È²ñÀè¡¡¡§¡¡lab@jarl.or.jp

¡¡ºÇ¿·¤Î¾ðÊó¤Ï¥Æ¥ì¥Û¥ó¥µ¡¼¥Ó¥¹¡Ê£°£³¡Ý£³£¹£´£²¡Ý£±£°£°£°¡Ë¤ò¤ªÊ¹¤­¤¯¤À¤µ¤¤¡£¡¡¡¡
¡¡°Ê¸å¤Î±¿ÍѤˤĤ­¤Þ¤·¤Æ¤ÏÊ¿À®£±£´Ç¯£··î¾å½Ü¤Ë¤ªÃΤ餻¤¤¤¿¤·¤Þ¤¹¡£¡¡¡¡¡¡¡¡¡¡¡¡¡¡ 
 ¡¡¡¡¡¡¡¡
-----------------------    £Æ£Ï¡Ý£²£°¡ÊJAS-£±£â¡ËÆ»Í×ÁÇ   -------------------------
 ¡¡
 ¡¡¢£ µ°Æ»Í×ÁÇ£± ¡§½Ðŵ¤Ï£Æ£Ï-£²£¹¡Ö¤Õ¤¸£³¹æ¡×¤ËƱ¤¸¡¥
  
FO-20
1 20480U 90013C   02282.94691512 -.00000020  00000-0  35444-4 0 04406
2 20480 099.0238 265.5543 0539822 302.0874 052.8889 12.83323387593636
 
 ¡¡¢£ µ°Æ»Í×ÁÇ£² ¡§½Ðŵ¤Ï£Æ£Ï¡Ý£²£¹¡Ö¤Õ¤¸£³¹æ¡×¤ËƱ¤¸¡¥
               
Satellite: FO-20
Catalog number: 20480
Epoch time:      02282.94691512
Element set:    0440
Inclination:      099.0238 deg
RA of node:       265.5543 deg
Eccentricity:    0.0539822
Arg of perigee:   302.0874 deg
Mean anomaly:     052.8889 deg
Mean motion:   12.83323387 rev/day
Decay rate:       -2.0e-07 rev/day^2
Epoch rev:           59363
Checksum:              309

--------------------------------------------------------------------------------¡¡
¡¡        ¢£ ¤Õ¤¸£²¹æ¡¿£Æ£Ï¡Ý£²£°/JAS-1£â ¢£  ¡¡   
            
¡¡¡¡¡¡¡¡¡¡¡¡¡¡¡¡¡¡¡¡¡Ö¤Õ¤¸£²¹æ¡×¡¡¸½¶·                                                                                  
             
   JAS-1b¡Ê¤Õ¤¸£²¹æ¡Ë¤Î£Ã£×¥Æ¥ì¥á¥È¥ê¿®¹æ¤Ë¡¤£±£¹£¹£·Ç¯£±£°·î£±£²Æü£±£²»þ¡Ê£Ê£Ó£Ô¡Ë¤Î
¡¡ÆüËܾå¶õÄ̲á»þ¡¤£³·å¤Î¿ô»ú¤¬·«¤êÊÖ¤µ¤ì¤ë¤Ï¤º¤¬£³¸Ä¤ÎĹ²»¤Î·«¤êÊÖ¤·¤È¤Ê¤Ã¤Æ¤¤¤ë¤È¤¤¤¦
¡¡°Û¾ï¤¬È¯¸«¤µ¤ì¤Þ¤·¤¿¡£¤³¤ÎÉÔ¶ñ¹ç¤Ï¼¡¤ÎÄ̲á»þ¤«¤é¤Ï²óÉü¤·¤Æ¤¤¤Þ¤·¤¿¤¬£±£³Æü£±£µ»þ£²£°Ê¬¤Î
¡¡Ä̲á»þ¤ËºÆ¤Ó´Ñ¬¤µ¤ì¤Þ¤·¤¿¡£¸½ºß¤Ï£Á£°¤ÎÁ÷¿®¤¬Â³¤¤¤Æ¤¤¤Þ¤¹¡£±ÒÀ±¤Î¥¢¥Ê¥í¥°·ÏÃæ·Ñ¥â¡¼¥É
¡¡Æ°ºî¤Ï°Û¾ï¤¬Ìµ¤¯¡¤Àµ¾ï»þ¤Î¥Æ¥ì¥á¥È¥êÆâÍƤ«¤é¤Ï±ÒÀ±¤ÎÆ°ºî¤Ë°Û¾ï¤Ïǧ¤á¤é¤ì¤Þ¤»¤ó¡£½¾¤Ã¤Æ¡¤
¡¡Ä¾¤Á¤Ë±ÒÀ±¤Î¥ß¥Ã¥·¥ç¥ó¤Ë±Æ¶Á¤¹¤ë¤³¤È¤Ï̵¤¤¤ÈͽÁÛ¤µ¤ì¤Þ¤¹¤Î¤Ç¡¤ÅöÌ̤ϥ¢¥Ê¥í¥°·ÏÃæ·Ñ
¡¡¥â¡¼¥É¤ò·Ñ³¤·¤Þ¤¹¡£±ÒÀ±¤Ï´û¤ËÂǤÁ¾å¤²¤Æ¤«¤é£·Ç¯£¸¥ö·î¤ò·Ð¤Æ¤ª¤ê¤Þ¤¹¤Î¤Ç¡¤º£¸å¤Ï´Æ»ë¤ò
¡¡¶¯²½¤¹¤ëͽÄê¤Ç¤¹¡£¥¢¥Þ¥Á¥å¥¢³Æ°Ì¤Î¥ì¥Ý¡¼¥È¤ò¤ªÂÔ¤Á¤·¤Þ¤¹¡£
¡¡-------------------------------------------------------------------------------- 
¡¡¡¡1997ǯ10·î14Æü¡¡00»þ35ʬ ³Îǧ¤Î¥Æ¥ì¥á¥È¥ê²» 151 KB ¡Ê£Á£°¡Ë 
¡¡¡¡1997ǯ10·î14Æü¡¡11»þ10ʬ ³Îǧ¤Î¥Æ¥ì¥á¥È¥ê²» 216 KB ¡Ê°Û¾ï¥­¡¼¥¤¥ó¥°¡Ë 

  °Ê¾å¡¡£Ê£Á£Ò£Ì¤Î¥Û¡Ý¥à¥Ú¡¼¥¸¤Î http://www.jarl.or.jp/Japanese/3_Fuji/new/fuji.htm

